Location: Arroyo de Valdeoliva
(40.1604°N, 4.9878°W)
Time: 20:11:28
(UTC+00:00)

SPOT 1/Viking Rocket - Pass Details

Date: 11 December 2025
Orbit: 772 x 790 km, 98.2° (Epoch: 12 January)

Event Time Altitude Azimuth Distance (km) Brightness Sun altitude
Rises 17:33:07 0° 133° (SE) 3,274 6.5 -7.4°
Reaches altitude 10° 17:35:47 10° 120° (ESE) 2,350 5.7 -7.9°
Maximum altitude 17:39:58 26° 66° (ENE) 1,533 4.5 -8.6°
Drops below altitude 10° 17:44:11 10° 12° (NNE) 2,361 5.7 -9.4°
Sets 17:46:51 0° 0° (N) 3,293 6.6 -9.9°
